User: anonymous   Login
Location: Unspecified
(0.0000°N, 0.0000°E)
Time: 05:13:05
(UTC+00:00)
Language:

IGS 7A - Orbit

View from above orbital plane
View from above orbital plane
View from above satellite
View from above satellite

Ground track
Ground track

The orbit data is extracted from the following two-line orbital elements,

1 37954U 11075A   17116.90927127 0.00000000  00000-0  00000-0 0    08
2 37954  97.4566 193.4261 0004984 336.0994  23.8816 15.17640736    00
Epoch (UTC): 26 April 2017 21:49:21
Eccentricity: 0.0004984
inclination: 97.4566°
perigee height: 509 km
apogee height: 516 km
right ascension of ascending node: 193.4261°
argument of perigee: 336.0994°
revolutions per day: 15.17640736
mean anomaly at epoch: 23.8816°
orbit number at epoch: 0

The dashed part of the orbit path shows where the satellite is in the earth's shadow,  

DLR